FENGYUN 1C DEB *, 46993

Orbit data source: Space-Track

FENGYUN 1C DEB *, 46993 is space debris in SSO originally from a launch on Mon, 10 May 1999 UTC launched from the Taiyaun Space Center, China (TSC). Fengyun 1C debris stems from the Chinese weather satellite Fengyun-1C, which was intentionally destroyed by a Chinese anti-satellite missile in 2007. This event dramatically increased the amount of space debris, with thousands of trackable fragments posing hazards to satellites and human spaceflight. The Fengyun 1C debris cloud has become a focal point in discussions about space sustainability and the need for international regulations to prevent the creation of new debris.

Loading next visibility...
Identifier
46993, 1999-025EZT
Orbit
SSO
Country
Flag of CNCN / PRC
Related business
Manufacturer
Unknown
Mission
Spacecraft
Bus & Motor
Unknown
Mass
Unknown
Launch date (UTC)
1999-05-10 (26 years ago)
Launch vehicle
Unknown
Launch site
Taiyaun Space Center, China (TSC)
Object type
Payload
Rocket body
Debris
Shape & HBR
Unknown
Radar Cross Section
Small (<0.1 m²)

Expand to show TLE details & history
Last TLE update: 3 days ago

TLE from 3 days ago
0 FENGYUN 1C DEB *
1 46993U 99025EZT 25259.13117781  .00000283  00000-0  29028-3 0  9995
2 46993  98.7149  25.7911 0264913 171.2867   6.4176 13.69049721590586
Epoch: 2025-09-16T03:08Z
TLE epoch observation values (Epoch: 2025-09-16T03:08:53.762Z)
Latitude
1.8183°
Longitude
163.51854°
Altitude
811.333 km
Speed
7.545 km/s
True Right ascension
13h 44m 16s
True Declination
1° 48' 27"
Sunlit
Object was in daylight at epoch
Visualization orbit readout
Latitude
Unknown
Longitude
Unknown
Altitude
Unknown
Speed
Unknown
Apparent Right ascension
Unknown
Apparent Declination
Unknown
Sunlit
N/A
Visualization observer readout
Local Sidereal Time
23:48:15
Azimuth
Unknown
Elevation
Unknown
Doppler factor
Unknown
Orbital elements
Apogee altitude
1,195.671 km
Perigee altitude
804.747 km
Semi-major axis
7,378.346 km
Eccentricity
0.02649
Inclination
98.7149°
RAAN
25.7911°
Arg. of periapsis
171.2867°
True anomaly
6.76844°
Mean anomaly
6.4176°
Eccentric anomaly
6.59184°
Mean motion
3.42456 °/min
Orbital period
105.12 mins
BSTAR
0.00029028
Loading maneuver chart data...
Computing Atmospheric mass density...
Loading historical data...
Loading historical data...
Loading historical data...
Loading historical data...
Loading historical data...
Loading historical data...
Loading historical data...

Documentation

Showing up to 5 results
|